Regional Weather Roundup
Issued by NWS

Home | Current Version | Previous Version | Text Only | Print | Product List | Glossary Off
Versions: 1 2 3 4 5 6 7 8 9 10 11 12 13 14 15 16 17 18 19 20 21 22 23 24 25 26 27 28 29 30 31 32 33 34 35 36 37 38 39 40 41 42 43 44 45 46 47 48 49 50

000
ASUS45 KBOU 300007
RWRCO

WEATHER ROUNDUP FOR COLORADO
NATIONAL WEATHER SERVICE DENVER/BOULDER CO
600 PM MDT MON SEP 29 2014

NOTE: "FAIR" INDICATES FEW OR NO CLOUDS BELOW 12000 FEET WITH NO
SIGNIFICANT WEATHER AND/OR OBSTRUCTIONS TO VISIBILITY.

COZ001>005-013-030-031-300100-
...NORTHWEST COLORADO...

CITY           SKY/WX    TMP DP  RH WIND       PRES   REMARKS
CRAIG          CLOUDY    52  39  61 SW6       29.99S
HAYDEN         CLOUDY    46  39  76 CALM      30.01R
MEEKER         HVY RAIN  45  42  89 W6        30.04R FOG
MOUNT WERNER   NOT AVBL
STEAMBOAT SPGS CLOUDY    45  41  83 E6        30.02R
WALDEN         CLOUDY    41  36  81 CALM      30.04S
$$

COZ006>008-011-300100-
...WEST CENTRAL VALLEYS...

CITY           SKY/WX    TMP DP  RH WIND       PRES   REMARKS
GRAND JUNCTION LGT RAIN  50  45  83 E8        30.01R
MONTROSE       CLOUDY    49  43  80 N7        30.07R
EAGLE          LGT RAIN  45  41  87 SW6       30.08F FOG
RIFLE          LGT RAIN  49  43  80 E9        30.03R
DELTA          HVY RAIN  52  44  74 NE10      30.03F
NUCLA          CLOUDY    54  39  58 CALM      30.07R
$$

COZ017>023-064>068-300100-
...SOUTHWEST COLORADO...

CITY           SKY/WX    TMP DP  RH WIND       PRES   REMARKS
DURANGO        MOSUNNY   55  36  48 W17G25    30.07R
CORTEZ         MOSUNNY   57  36  45 W9        30.06R
PAGOSA SPRINGS PTCLDY    47  41  80 S3        30.12R
TELLURIDE      NOT AVBL
WOLF CREEK PAS CLOUDY    28  28 100 SW32G46   30.19F WCI  12
$$

COZ009-010-012-014-032>034-037-058>063-300100-
...CENTRAL COLORADO...

CITY           SKY/WX    TMP DP  RH WIND       PRES   REMARKS
ASPEN          LGT RAIN  40  37  89 N5        30.07F
BUENA VISTA    LGT RAIN  44  34  66 CALM      30.02S
COPPER MTN     SNOW      34  30  86 W28G39    30.14F VSB<1/4 WCI  20
BERTHOUD PASS  HVY SNOW  27  23  86 N10G24    30.14F VSB<1/4 WCI  17
COTTONWOOD PAS LGT SNOW  37  32  81 W30G43    30.05F
GUNNISON       MOCLDY    45  34  65 S5        30.11R
KREMMLING      LGT RAIN  41  36  81 W8        30.05F
LEADVILLE      LGT SNOW  33  33 100 NW7G16    30.09R FOG     WCI  27
SALIDA         CLOUDY    48  37  64 SW5       30.09F
SUNLIGHT       LGT SNOW  34  32  93 CALM      30.15S
WILKERSON PASS NOT AVBL
$$

COZ069>075-300100-
...SAN LUIS VALLEY/SANGRE DE CRISTO MOUNTAINS...

CITY           SKY/WX    TMP DP  RH WIND       PRES   REMARKS
ALAMOSA        CLOUDY    48  40  73 VRB5      30.07F
LA VETA PASS   CLOUDY    36  34  93 S17G40    30.01F
SAGUACHE       MOCLDY    48  36  61 E5        30.08F
$$

COZ035-036-038>040-300100-
...NORTHERN COLORADO FRONT RANGE...

CITY           SKY/WX    TMP DP  RH WIND       PRES   REMARKS
DENVER INTL AP TSTM      54  52  93 NW7       29.86F FOG
DMNS CITY PARK   N/A     53  53  97 N2        29.86S
AURORA         LGT RAIN  51  51 100 E5        29.87F
FRONT RANGE AP NOT AVBL
ERIE MUNI ARPT RAIN      55  53  92 CALM      29.86S
BOULDER MUN AP LGT RAIN  54  54 100 N6        29.86F
CENTENNIAL     LGT RAIN  53  51  93 E3        29.88F
BROOMFIELD     LGT RAIN  54  52  94 VRB5      29.88F
FORT COLLINS   CLOUDY    55  54  94 N9        29.87S
LONGMONT       RAIN      58  54  88 SW3       29.88R
$$

COZ041-046-047-076>085-087-088-300100-
...PIKES PEAK/PALMER DIVIDE AND SOUTHERN FOOTHILLS...

CITY           SKY/WX    TMP DP  RH WIND       PRES   REMARKS
COLO. SPRINGS  CLOUDY    52  46  80 NE17      29.86F
A. F. ACADEMY  CLOUDY    54  40  59 N8        29.87F
ELLICOTT       NOT AVBL
FALCON         CLOUDY    49  42  75 NE7       29.91F
FORT CARSON    CLOUDY    55  48  77 E12       29.83F
LIMON          TSTM      55  52  89 W17G36    29.86R FOG
MONUMENT HILL  CLOUDY    45  41  87 CALM      29.89F
TRINIDAD       MOCLDY    59  43  55 SW12G21   29.92F
$$

COZ042>045-048>051-090-091-300100-
...NORTHEAST COLORADO...

CITY           SKY/WX    TMP DP  RH WIND       PRES   REMARKS
GREELEY ARPT   CLOUDY    55  50  82 NW12      29.83F
AKRON          TSTM      56  55  97 W8        29.78R
BURLINGTON     PTCLDY    76  52  43 S30G41    29.77F
WRAY           MOCLDY    78  51  39 SE31G38   29.73F
STERLING       CLOUDY    59  57  94 W28G37    29.75R
HOLYOKE        MOCLDY    79  54  41 SE25G33   29.74F
FORT MORGAN    CLOUDY    55  53  93 N10       29.76F
$$

COZ086-089-092>099-300100-
...SOUTHEAST COLORADO...

CITY           SKY/WX    TMP DP  RH WIND       PRES   REMARKS
PUEBLO         CLOUDY    61  52  72 CALM      29.80F
LA JUNTA       TSTM      59  51  75 MISG      29.83R
LAMAR          PTCLDY    78  54  43 S32G41    29.74F
SPRINGFIELD      N/A     73  54  51 S29G40    29.85F
$$



USA.gov is the U.S. government's official web portal to all federal, state and local government web resources and services.